STARLINK-30766, 58125

Orbit data source: Space-Track

STARLINK-30766, 58125 is a payload satellite owned by SpaceX/Seattle (US) in LEO that was launched on Sun, 22 Oct 2023 UTC via an FALCON 9 launch vehicle from the Air Force Eastern Test Range (AFETR). Payload-class satellites include a variety of spacecraft equipped with specific instruments for various scientific and technological missions. These include communications satellites like Starlink; space stations such as the ISS; scientific satellites like the Hubble; Earth observation satellites from companies like Planet Labs, Umbra, and HawkEye 360; GPS; miniature CubeSats for education and research; and military/defense satellites.

Loading next visibility...
Identifier
58125, 2023-162H
Orbit
LEO
Country
Flag of USUS
Related business
Manufacturer
SpaceX/Seattle
Mission
Operational Commercial Communications
Bus & Motor
STARLINK V2M, Unknown motor
Mass
730 kg wet, ~700 kg dry
Launch date (UTC)
2023-10-22 (2 years ago)
Launch vehicle
FALCON 9
Launch site
Air Force Eastern Test Range (AFETR)
Object type
Payload
Rocket body
Debris
Shape & HBR
Box + 2 Pan, 17.7 m
Radar Cross Section
33.884 m², Large (>1 m²)

Expand to show TLE details & history
Last TLE update: 1 day ago

TLE from 1 day ago
0 STARLINK-30766
1 58125U 23162H   25348.41733017 -.00000371  00000-0 -12380-4 0  9994
2 58125  43.0036 236.3685 0001425 263.9155  96.1525 15.02527492119472
Epoch: 2025-12-14T10:00Z
TLE epoch observation values (Epoch: 2025-12-14T10:00:57.326Z)
Latitude
-0.00003°
Longitude
2.79907°
Altitude
558.99 km
Speed
7.584 km/s
True Right ascension
15h 45m 28s
True Declination
0° 00' 00"
Sunlit
Object was in daylight at epoch
Visualization orbit readout
Latitude
Unknown
Longitude
Unknown
Altitude
Unknown
Speed
Unknown
Apparent Right ascension
Unknown
Apparent Declination
Unknown
Sunlit
N/A
Visualization observer readout
Local Sidereal Time
15:11:34
Azimuth
Unknown
Elevation
Unknown
Doppler factor
Unknown
Orbital elements
Apogee altitude
562.018 km
Perigee altitude
560.04 km
Semi-major axis
6,939.166 km
Eccentricity
0.00014
Inclination
43.0036°
RAAN
236.3685°
Arg. of periapsis
263.9155°
True anomaly
96.16873°
Mean anomaly
96.1525°
Eccentric anomaly
96.16062°
Mean motion
3.75476 °/min
Orbital period
95.88 mins
BSTAR
-0.00001238
Loading maneuver chart data...
Computing Atmospheric mass density...
Loading historical data...
Loading historical data...
Loading historical data...
Loading historical data...
Loading historical data...
Loading historical data...
Loading historical data...

Documentation

Showing up to 5 results
|